Great Falls, MT

5:53 PM MDT on April 23, 2017 (GMT -0600)
Great Falls International

Weather History for KGTF - March, 2014

Change the Weather History Date:

Monday, March 10, 2014

  Actual Average Record
Temperature  
Mean Temperature 38 °F 32 °F  
Max Temperature 44 °F 44 °F 69 °F (1983)
Min Temperature 32 °F 21 °F -32 °F (1932)
Degree Days  
Heating Degree Days 27 33  
Month to date heating degree days 416 340  
Since 1 July heating degree days 6070 5845  
Cooling Degree Days 0 0  
Month to date cooling degree days 0 0  
Year to date cooling degree days 0 0  
Moisture  
Dew Point 34 °F    
Average Humidity 81    
Maximum Humidity 100    
Minimum Humidity 62    
Precipitation  
Precipitation 0.58 in 0.03 in 0.58 in (2014)
Month to date precipitation 0.67 0.24  
Year to date precipitation 3.09 1.22  
Snow  
Snow 3.40 in 0.40 in 4.60 in (1967)
Month to date snowfall 5.7 3.7  
Since 1 July snowfall 63.2 43.7  
Snow Depth 0.00 in    
Sea Level Pressure  
Sea Level Pressure 29.86 in    
Wind  
Wind Speed 7 mph (North)    
Max Wind Speed 22 mph    
Max Gust Speed 28 mph    
Visibility 6 miles    
Events Rain , Snow    
T = Trace of Precipitation, MM = Missing Value Source: NWS Daily Summary

Daily Weather History Graph

Daily Weather History Graph

Search for Another Location

Airport or City:

Trip Planner

Search our weather history database for the weather conditions in past years. The results will help you decide how hot, cold, wet, or windy it might be!

Date:

Astronomy

Mar. 10, 2014 Rise Set
Actual Time 7:48 AM MDT 7:23 PM MDT
Civil Twilight 7:17 AM MDT 7:54 PM MDT
Nautical Twilight 6:42 AM MDT 8:30 PM MDT
Astronomical Twilight 6:06 AM MDT 9:06 PM MDT
Moon 1:54 PM MDT (3/10) 4:19 AM MDT (3/10)
Length of Visible Light 12h 36m
Length of Day
11h 35m
Waxing Gibbous, 70% of the Moon is Illuminated
Mar 10
Waxing Gibbous
Mar 16
Full
Mar 23
Last Quarter
Mar 30
New
Apr 7
First Quarter

Hourly Weather History & Observations

Time (MDT) Temp. Windchill Dew Point Humidity Pressure Visibility Wind Dir Wind Speed Gust Speed Precip Events Conditions
12:53 AM 45.0 °F 40.1 °F 35.1 °F 68% 29.84 in 10.0 mi WSW 9.2 mph - N/A   Clear
1:53 AM 39.9 °F 34.5 °F 34.0 °F 79% 29.84 in 10.0 mi SW 8.1 mph - N/A   Clear
2:53 AM 39.9 °F 36.7 °F 34.0 °F 79% 29.83 in 10.0 mi SSW 4.6 mph - N/A   Scattered Clouds
3:53 AM 42.1 °F 37.1 °F 35.1 °F 76% 29.79 in 10.0 mi SSW 8.1 mph - N/A   Overcast
4:53 AM 39.9 °F 35.8 °F 35.1 °F 83% 29.81 in 10.0 mi NE 5.8 mph - N/A   Overcast
5:53 AM 41.0 °F 35.2 °F 34.0 °F 76% 29.81 in 10.0 mi East 9.2 mph - N/A   Overcast
6:26 AM 42.8 °F 41.1 °F 33.8 °F 70% 29.79 in 5.0 mi Variable 3.5 mph - 0.01 in Rain Rain
6:53 AM 39.9 °F 34.5 °F 36.0 °F 86% 29.82 in 10.0 mi NE 8.1 mph - 0.03 in Rain Light Rain
7:53 AM 37.9 °F 33.5 °F 36.0 °F 93% 29.86 in 7.0 mi NE 5.8 mph - 0.07 in Rain Light Rain
8:53 AM 37.9 °F 34.4 °F 36.0 °F 93% 29.85 in 7.0 mi NE 4.6 mph - 0.08 in Rain Light Rain
9:53 AM 39.0 °F - 37.0 °F 93% 29.84 in 10.0 mi Calm Calm - 0.02 in Rain Light Rain
10:53 AM 39.0 °F 34.8 °F 37.0 °F 93% 29.85 in 10.0 mi SW 5.8 mph - 0.01 in Rain Light Rain
11:17 AM 39.2 °F 33.6 °F 37.4 °F 93% 29.80 in 9.0 mi West 8.1 mph - 0.00 in Rain Light Rain
11:50 AM 39.2 °F 34.2 °F 37.4 °F 93% 29.79 in 10.0 mi WSW 6.9 mph - 0.01 in Rain Light Rain
11:53 AM 39.0 °F 34.8 °F 37.0 °F 93% 29.85 in 10.0 mi WSW 5.8 mph - 0.01 in Rain Light Rain
12:53 PM 39.0 °F 33.4 °F 37.9 °F 96% 29.83 in 10.0 mi SW 8.1 mph - 0.00 in   Overcast
1:37 PM 39.2 °F 37.0 °F 37.4 °F 93% 29.76 in 10.0 mi SW 3.5 mph - N/A   Overcast
1:53 PM 39.9 °F - 36.0 °F 86% 29.82 in 10.0 mi Calm Calm - N/A   Overcast
2:53 PM 42.1 °F 39.2 °F 35.1 °F 76% 29.79 in 10.0 mi South 4.6 mph - N/A   Overcast
3:53 PM 42.1 °F 39.2 °F 30.9 °F 65% 29.79 in 10.0 mi East 4.6 mph - N/A   Overcast
4:53 PM 39.9 °F 35.1 °F 32.0 °F 73% 29.82 in 10.0 mi ENE 6.9 mph - 0.00 in Rain Light Rain
5:15 PM 39.2 °F 35.0 °F 33.8 °F 81% 29.76 in 10.0 mi NNE 5.8 mph - 0.00 in Rain Light Rain
5:43 PM 37.4 °F 31.4 °F 33.8 °F 87% 29.77 in 8.0 mi NE 8.1 mph - 0.01 in Rain Light Rain
5:53 PM 37.0 °F 32.4 °F 34.0 °F 89% 29.85 in 6.0 mi NE 5.8 mph - 0.01 in Rain Light Rain
6:36 PM 35.6 °F 29.9 °F 33.8 °F 93% 29.81 in 5.0 mi NE 6.9 mph - 0.04 in Rain Rain
6:51 PM 33.8 °F 28.6 °F 33.8 °F 100% 29.82 in 1.8 mi NNE 5.8 mph - 0.05 in Snow Light Snow
6:53 PM 33.1 °F 27.7 °F 33.1 °F 100% 29.91 in 1.5 mi NNE 5.8 mph - 0.06 in Snow Light Snow
7:00 PM 33.8 °F 29.6 °F 32.0 °F 93% 29.83 in 0.8 mi NNE 4.6 mph - 0.01 in Snow Light Snow
7:53 PM 32.0 °F 26.4 °F 32.0 °F 100% 29.96 in 0.8 mi North 5.8 mph - 0.08 in Snow Light Snow
8:51 PM 32.0 °F 27.5 °F 32.0 °F 100% 29.88 in 1.0 mi North 4.6 mph - 0.06 in Snow Light Snow
8:53 PM 32.0 °F 27.5 °F 32.0 °F 100% 29.98 in 3.0 mi North 4.6 mph - 0.06 in Snow Light Snow
9:28 PM 32.0 °F 26.4 °F 32.0 °F 100% 29.90 in 0.8 mi NNW 5.8 mph - 0.02 in Snow Light Snow
9:45 PM 32.0 °F 26.4 °F 32.0 °F 100% 29.91 in 0.8 mi NNW 5.8 mph - 0.03 in Snow Light Snow
9:53 PM 32.0 °F 25.6 °F 32.0 °F 100% 30.01 in 0.8 mi NNW 6.9 mph - 0.04 in Snow Light Snow
10:53 PM 32.0 °F 22.5 °F 32.0 °F 100% 30.04 in 0.8 mi North 12.7 mph - 0.06 in Snow Light Snow
11:28 PM 32.0 °F 22.1 °F 32.0 °F 100% 29.97 in 1.0 mi NNE 13.8 mph - 0.03 in Snow Light Snow
11:53 PM 32.0 °F 21.2 °F 32.0 °F 100% 30.09 in 1.0 mi NNE 16.1 mph - 0.03 in Snow Light Snow